Location: Pompeys Pillar
(45.9913°N, 107.9528°W)
Time: 04:10:36
(UTC+00:00)

Tiros 1 - Pass Details

Date: 03 June 2022
Orbit: 629 x 663 km, 48.4° (Epoch: 30 June)

Event Time Altitude Azimuth Distance (km) Brightness Sun altitude
Rises 03:56:06 0° 203° (SSW) 2,904 10.3 -8.8°
Reaches altitude 10° 03:58:51 10° 188° (S) 1,998 9.3 -9.1°
Maximum altitude 04:02:17 21° 139° (SE) 1,408 8.3 -9.6°
Drops below altitude 10° 04:05:45 10° 90° (E) 2,006 9.3 -10.0°
Sets 04:08:31 0° 75° (ENE) 2,919 10.2 -10.3°
